Preview of NWS' New Version of Forecast
This preview is not operational and should not be used for support decisions.
Latest weather observations around

Batavia Clermont County Airport (KI69)

Using English Units (Switch to International System of Units)
Date/ Time (EST) Wind (mph) Vis. (mi) Weather Sky Cond. Temp (°F) Rel. Humidity Wind Chill (°F) Heat Index (°F) Pressure Precip. (in)
Air Dwpt 6 hour Altimeter (inHg) Sea level (inHg) 1 hr 3 hr 6 hr
Max Min
Jan 18 00:36 WNW 7 7 Cloudy OVC005 38 37     97% 32   30.06        
Jan 18 00:35 WNW 7 7 Cloudy OVC005 38 37     97% 32   30.06        
Jan 18 00:15 W 3 7 Cloudy OVC005 38 37     98% 36   30.06        
Jan 17 23:56 WNW 8 10 Cloudy OVC005 38 37     97% 32   30.05        
Jan 17 23:55 WNW 9 10 Cloudy OVC005 38 37     97% 32   30.05        
Jan 17 23:36 W 10 10 Cloudy OVC005 39 38     97% 32   30.05        
Jan 17 23:35 W 11 10 Cloudy OVC005 39 38     97% 32   30.04        
Jan 17 23:15 WNW 9 10 Cloudy OVC005 39 38     97% 33   30.03        
Jan 17 22:55 WNW 9 10 Cloudy OVC005 40 39     98% 34   30.02        
Jan 17 22:36 W 9 5 Fog/Mist OVC003 40 40     99% 34   30.02        
Jan 17 22:15 W 7 7 Cloudy OVC003 40 40     100% 35   30.02        
Jan 17 21:56 W 5 3 Fog/Mist OVC003 40 40     100% 37   30.02        
Jan 17 21:55 W 5 3 Fog/Mist OVC003 40 40     100% 37   30.02        
Jan 17 21:35 WSW 7 2.5 Light Snow OVC003 40 40     100% 35   30.02        
Jan 17 21:15 WSW 7 2.5 Fog/Mist OVC003 40 40     100% 35   30.01        
Jan 17 20:56 SW 5 2.5 Fog/Mist OVC003 40 40     100% 36   29.99        
Jan 17 20:55 SW 5 2 Fog/Mist OVC003 40 40     100% 36   29.99        
Jan 17 20:35 SSW 5 2 Light Rain OVC003 40 40     100% 36   29.99        
Jan 17 20:16 SW 5 2 Fog/Mist OVC003 39 39     100% 36   30        
Jan 17 20:15 SW 5 2 Fog/Mist OVC003 39 39     100% 36   30        
Jan 17 19:56 SW 5 2 Fog/Mist OVC003 39 39     99% 36   30.01        
Jan 17 19:55 SW 6 2 Fog/Mist OVC003 39 39     100% 35   30.01        
Jan 17 19:35 SSW 3 2.5 Unknown Precipitation OVC005 39 39     100% 37   30        
Jan 17 19:16 SSW 5 5 Fog/Mist OVC005 39 39     99% 36   30.01        
Jan 17 19:15 SSW 5 5 Fog/Mist OVC005 39 39     99% 36   30.01        
Jan 17 18:56 SSW 5 3 Unknown Precipitation OVC005 39 39     99% 36   30       0
Jan 17 18:55 SSW 5 2.5 Unknown Precipitation OVC005 39 39     99% 36   30       0
Jan 17 18:35 SSW 5 2.5 Light Snow OVC005 39 39     99% 36   30        
Jan 17 18:16 S 5 4 Fog/Mist OVC005 39 38     99% 35   29.99        
Jan 17 18:15 S 6 4 Fog/Mist OVC005 39 38     99% 35   29.99        
Jan 17 17:56 S 6 4 Fog/Mist OVC005 39 38     99% 34   29.98        
Jan 17 17:55 S 5 3 Fog/Mist OVC005 39 38     99% 35   29.99        
Jan 17 17:35 S 5 5 Fog/Mist OVC005 38 38     99% 35   29.98        
Jan 17 17:16 S 3 4 Fog/Mist OVC005 38 38     100% 36   29.98        
Jan 17 17:15 S 3 4 Fog/Mist OVC005 38 38     100% 36   29.98        
Jan 17 16:56 SSE 5 2 Fog/Mist OVC005 38 38     99% 35   29.99   0    
Jan 17 16:55 SSE 3 2 Fog/Mist OVC005 38 38     99% 36   29.99   0    
Jan 17 16:35 SSE 3 1.5 Fog/Mist OVC005 38 38     99% 36   29.99   0    
Jan 17 16:16 SE 3 1.25 Light Snow OVC005 38 38     99% 36   29.99        
Jan 17 16:15 SSE 3 1 Light Snow OVC005 38 38     99% 35   30        
Jan 17 15:56 SE 3 1.5 Light Snow OVC005 38 38     99% 36   30   0 0  
Jan 17 15:55 SE 5 1.5 Light Snow OVC005 38 38     99% 34   30   0 0  
Jan 17 15:35 Calm 1.5 Fog/Mist OVC007 38 38     99%     30.01        
Jan 17 15:16 SSE 3 1.5 Fog/Mist OVC009 38 37     97% 36   30.01        
Jan 17 15:15 SSE 3 1.5 Fog/Mist OVC009 38 37     97% 36   30.01        
Jan 17 14:56 SE 5 4 Fog/Mist OVC009 38 37     98% 34   30        
Jan 17 14:55 SE 5 5 Fog/Mist OVC009 38 37     98% 34   30        
Jan 17 14:35 ESE 5 4 Fog/Mist OVC009 38 37     96% 35   30.01        
Jan 17 14:16 SE 3 3 Fog/Mist BKN009 OVC021 38 37     96% 36   30.02        
Jan 17 14:15 SE 5 3 Fog/Mist BKN009 OVC021 38 37     95% 34   30.02        
Jan 17 13:56 SSE 3 5 Fog/Mist SCT011 BKN021 OVC050 38 37     95% 36   30.03        
Jan 17 13:35 SE 5 5 Fog/Mist SCT021 SCT037 OVC050 37 36     95% 34   30.04        
Jan 17 13:16 SE 5 5 Fog/Mist SCT036 OVC050 37 36     94% 33   30.06        
Jan 17 13:15 SE 5 5 Fog/Mist SCT036 OVC050 37 36     95% 33   30.06        
Jan 17 12:56 SE 3 5 Light Snow BKN036 OVC049 37 35     94% 34   30.07       0
Jan 17 12:35 SE 5 7 Cloudy SCT010 BKN047 OVC050 36 35     92% 33   30.09        
Jan 17 12:16 Calm 7 Cloudy BKN050 BKN055 OVC065 36 34     92%     30.1        
Jan 17 12:15 SSE 3 7 Cloudy BKN050 BKN055 OVC065 36 34     92% 34   30.1        
Jan 17 11:55 SSE 5 7 Cloudy SCT030 BKN047 OVC055 36 34     93% 32   30.12        
Jan 17 11:36 SE 6 7 Cloudy BKN029 BKN035 OVC045 36 34     93% 31   30.13        
Jan 17 11:35 SE 6 7 Cloudy BKN029 OVC035 36 34     93% 31   30.13        
Jan 17 11:15 SE 3 7 Cloudy BKN029 BKN037 OVC050 35 34     94% 33   30.14        
Jan 17 10:56 SE 6 7 Cloudy SCT024 BKN050 OVC075 35 33     94% 30   30.14        
Jan 17 10:55 SE 6 7 Cloudy SCT028 BKN050 OVC075 35 33     94% 30   30.14        
Jan 17 10:35 SE 6 7 Cloudy SCT005 SCT024 OVC060 35 33     95% 29   30.14        
Jan 17 10:16 SE 5 7 Cloudy BKN005 OVC070 34 33     96% 30   30.14        
Jan 17 10:15 SE 6 7 Cloudy BKN005 OVC070 34 33     96% 29   30.14        
Jan 17 09:56 ESE 8 5 Fog/Mist OVC005 34 33     96% 27   30.13     0  
Jan 17 09:35 ESE 5 4 Fog/Mist BKN005 OVC011 33 33     99% 29   30.14        
Jan 17 09:16 ESE 5 3 Fog/Mist BKN003 BKN011 OVC027 33 32     98% 28   30.14        
Jan 17 09:15 ESE 5 3 Fog/Mist BKN003 BKN011 OVC027 33 32     98% 28   30.14        
Jan 17 08:56 ESE 5 2.5 Light Snow BKN005 OVC020 33 32     98% 28   30.14   0    
Jan 17 08:55 ESE 5 2.5 Light Snow BKN005 OVC020 33 32     98% 28   30.14   0    
Jan 17 08:36 SE 3 1.25 Light Snow OVC007 33 32     97% 30   30.16   0    
Jan 17 08:35 Calm 1.5 Light Snow OVC007 33 32     97%     30.16   0    
Jan 17 08:15 SE 5 5 Light Snow SCT007 BKN022 OVC028 33 32     96% 28   30.16        
Jan 17 07:56 ESE 5 7 Light Snow SCT007 SCT028 OVC037 33 32     96% 29   30.16        
Jan 17 07:55 ESE 5 7 Light Snow SCT007 SCT028 OVC037 33 32     96% 29   30.16        
Jan 17 07:35 ESE 5 7 Light Snow SCT007 SCT033 OVC039 33 32     95% 29   30.17        
Jan 17 07:16 SE 5 7 Light Snow SCT007 OVC037 33 32     96% 29   30.18        
Jan 17 07:15 SE 5 7 Light Snow SCT007 OVC035 33 32     96% 29   30.18        
Jan 17 06:56 SE 5 10 Cloudy BKN035 OVC045 33 32     96% 29   30.18        
Jan 17 06:35 ESE 5 10 Cloudy SCT016 SCT033 OVC045 33 32     96% 28   30.18        
Jan 17 06:16 ESE 3 10 Cloudy SCT016 BKN033 OVC043 33 32     96% 30   30.19        
Jan 17 06:15 SE 3 10 Cloudy SCT016 BKN033 OVC043 33 32     96% 30   30.19        
Jan 17 05:56 SE 3 10 Cloudy BKN031 OVC045 33 32     96% 30   30.2        
Jan 17 05:35 ESE 5 10 Cloudy OVC045 33 32     96% 28   30.2        
Jan 17 05:16 ESE 3 10 Cloudy OVC047 33 32     95% 30   30.21        
Jan 17 05:15 Calm 10 Cloudy OVC047 33 32     95%     30.21        
Jan 17 04:55 SE 3 10 Cloudy SCT032 SCT041 OVC047 33 31     94% 30   30.21        
Jan 17 04:35 SE 3 10 Cloudy SCT032 OVC040 33 31     94% 30   30.21        
Jan 17 04:16 ESE 6 10 Cloudy OVC033 33 31     93% 27   30.21        
Jan 17 04:15 ESE 6 10 Cloudy OVC033 33 31     93% 27   30.22        
Jan 17 03:55 ESE 6 10 Cloudy BKN028 OVC034 33 31     93% 27   30.23        
Jan 17 03:35 E 6 10 Cloudy OVC025 33 31     93% 27   30.24        
Jan 17 03:16 ESE 5 10 Cloudy OVC023 33 31     94% 28   30.24        
Jan 17 03:15 ESE 5 10 Cloudy OVC023 33 31     94% 28   30.24        
Jan 17 02:55 ESE 6 10 Cloudy OVC023 33 31     94% 27   30.25        
Jan 17 02:35 ESE 3 10 Cloudy OVC023 33 31     94% 29   30.24        
Jan 17 02:16 ESE 3 10 Cloudy OVC023 32 31     95% 29   30.24        
Jan 17 02:15 ESE 3 10 Cloudy OVC023 32 31     95% 29   30.24        
Jan 17 01:55 ESE 3 10 Cloudy OVC023 32 31     94% 29   30.25        
Jan 17 01:35 SE 3 10 Cloudy OVC021 32 30     92% 29   30.25        
Jan 17 01:16 Calm 10 Cloudy BKN021 OVC026 32 30     90%     30.25        
Jan 17 01:15 Calm 10 Cloudy BKN021 OVC026 32 30     90%     30.26        
Jan 17 00:55 Calm 10 Cloudy OVC025 33 30     90%     30.26        
Jan 17 00:35 Calm 10 Cloudy BKN017 OVC027 33 29     88%     30.27        
Jan 17 00:16 Calm 10 Cloudy BKN017 OVC025 33 29     87%     30.27        
Jan 17 00:15 Calm 10 Cloudy BKN017 OVC025 33 29     87%     30.27        
Jan 16 23:55 Calm 10 Cloudy OVC025 32 30     90%     30.28        
Jan 16 23:35 Calm 10 Cloudy OVC025 33 29     88%     30.29        
Jan 16 23:16 E 5 10 Cloudy OVC025 33 29     88% 28   30.29        
Jan 16 23:15 E 3 10 Cloudy OVC025 33 30     89% 29   30.29        
Jan 16 22:55 Calm 10 Cloudy OVC023 33 30     89%     30.28        
Jan 16 22:35 Calm 10 Cloudy OVC021 33 30     89%     30.29        
Jan 16 22:16 Calm 10 Cloudy OVC021 33 30     89%     30.29        
Jan 16 22:15 Calm 10 Cloudy OVC021 33 30     88%     30.29        
Jan 16 21:56 Calm 10 Cloudy OVC023 33 30     90%     30.29        
Jan 16 21:55 Calm 10 Cloudy OVC023 33 30     90%     30.29        
Jan 16 21:35 Calm 10 Cloudy OVC023 33 30     91%     30.29        
Jan 16 21:16 ENE 5 10 Cloudy OVC021 33 30     89% 28   30.29        
Jan 16 21:15 ENE 3 10 Cloudy OVC021 33 30     88% 30   30.29        
Jan 16 20:56 Calm 10 Cloudy OVC017 33 30     90%     30.29        
Jan 16 20:55 Calm 10 Cloudy OVC017 33 30     90%     30.29        
Jan 16 20:35 Calm 10 Cloudy OVC017 33 30     90%     30.29        
Jan 16 20:16 Calm 10 Cloudy OVC017 33 30     88%     30.29        
Jan 16 20:15 Calm 10 Cloudy OVC017 33 30     88%     30.29        
Jan 16 19:56 Calm 10 Cloudy OVC017 33 29     85%     30.28        
Jan 16 19:55 Calm 10 Cloudy OVC017 33 29     85%     30.28        
Jan 16 19:35 Calm 10 Cloudy OVC017 33 30     89%     30.29        
Jan 16 19:16 Calm 10 Cloudy OVC017 33 30     87%     30.29        
Jan 16 19:15 Calm 10 Cloudy OVC017 33 30     87%     30.29        
Jan 16 18:56 Calm 10 Cloudy OVC017 33 29     86%     30.28        
Jan 16 18:55 Calm 10 Cloudy OVC017 33 29     85%     30.28        
Jan 16 18:35 Calm 10 Cloudy OVC017 33 29     85%     30.28        
Jan 16 18:16 Calm 10 Cloudy OVC017 33 30     88%     30.27        
Jan 16 18:15 Calm 10 Cloudy OVC017 33 30     88%     30.27        
Jan 16 17:56 Calm 10 Cloudy OVC017 33 30     88%     30.27        
Jan 16 17:55 Calm 10 Cloudy OVC017 33 30     88%     30.27        
Jan 16 17:35 Calm 10 Cloudy OVC017 34 29     85%     30.27        
Jan 16 17:16 WNW 3 10 Cloudy OVC017 34 29     83% 31   30.28        
Jan 16 17:15 WNW 3 10 Cloudy OVC017 34 29     82% 31   30.28        
Jan 16 16:56 NW 3 10 Cloudy OVC017 34 29     83% 31   30.27        
Jan 16 16:55 WNW 3 10 Cloudy OVC017 34 29     83% 31   30.27        
Jan 16 16:35 Calm 10 Cloudy OVC017 34 29     82%     30.26        
Jan 16 16:16 Calm 10 Cloudy OVC017 34 29     83%     30.26        
Jan 16 16:15 WNW 5 10 Cloudy OVC017 34 29     83% 30   30.26        
Jan 16 15:56 N 3 10 Cloudy OVC019 34 29     83% 31   30.26        
Jan 16 15:55 N 3 10 Cloudy OVC019 34 29     82% 32   30.26        
Jan 16 15:35 NNW 3 10 Cloudy OVC019 34 29     80% 32   30.26        
Jan 16 15:16 W 3 10 Cloudy OVC019 34 29     80% 32   30.25        
Jan 16 15:15 Calm 10 Cloudy OVC019 34 29     80%     30.25        
Jan 16 14:56 Calm 10 Cloudy OVC019 34 28     79%     30.25        
Jan 16 14:55 W 5 10 Cloudy OVC019 34 28     79% 30   30.25        
Jan 16 14:35 WNW 3 10 Cloudy OVC019 35 29     80% 32   30.25        
Jan 16 14:16 WNW 7 10 Cloudy OVC019 35 29     80% 29   30.24        
Jan 16 14:15 WNW 7 10 Cloudy OVC019 35 29     80% 29   30.24        
Jan 16 13:55 W 5 10 Cloudy OVC017 34 29     82% 30   30.24        
Jan 16 13:36 W 6 10 Cloudy OVC017 34 30     84% 29   30.24        
Jan 16 13:35 WNW 5 10 Cloudy OVC017 34 30     84% 30   30.24        
Jan 16 13:15 WNW 5 10 Cloudy OVC019 35 30     83% 30   30.25        
Jan 16 12:56 NW 5 10 Cloudy BKN015 OVC022 35 30     83% 31   30.25        
Jan 16 12:55 NW 5 10 Cloudy BKN015 OVC022 35 30     84% 31   30.25        
Jan 16 12:35 WNW 6 10 Cloudy BKN013 OVC022 35 31     85% 30   30.25        
Jan 16 12:16 WNW 5 10 Cloudy SCT013 OVC020 35 31     85% 31   30.26        
Jan 16 12:15 W 5 10 Cloudy SCT015 OVC020 35 31     86% 30   30.26        
Jan 16 11:56 WNW 5 10 Cloudy OVC022 35 31     85% 31   30.26        
Jan 16 11:55 NW 5 10 Cloudy OVC022 35 31     85% 31   30.26        
Jan 16 11:35 NW 7 10 Cloudy OVC022 34 31     88% 28   30.27        
Jan 16 11:16 NW 5 10 Cloudy OVC022 34 31     86% 30   30.27        
Jan 16 11:15 NW 6 10 Cloudy OVC022 34 31     87% 29   30.27        
Jan 16 10:56 W 5 10 Cloudy OVC024 34 30     85% 30   30.27        
Jan 16 10:55 W 5 10 Cloudy OVC024 34 30     85% 30   30.27        
Jan 16 10:35 W 7 10 Cloudy OVC024 34 30     86% 28   30.26        
Jan 16 10:16 W 6 10 Cloudy OVC024 34 32     92% 29   30.26        
Jan 16 10:15 WNW 5 10 Cloudy OVC024 34 32     92% 29   30.26        
Jan 16 09:56 W 3 5 Fog/Mist SCT006 OVC024 33 32     96% 30   30.25        
Jan 16 09:35 W 3 4 Fog/Mist OVC006 33 32     97% 30   30.24        
Jan 16 09:16 WSW 3 3 Fog/Mist OVC006 33 32     98% 30   30.24        
Jan 16 09:15 WSW 5 3 Fog/Mist OVC006 33 32     98% 28   30.24        
Jan 16 08:55 Calm 3 Fog/Mist OVC004 33 32     98%     30.23        
Jan 16 08:35 WSW 3 2.5 Light Snow OVC004 33 32     98% 30   30.23        
Jan 16 08:16 WSW 3 2 Light Snow OVC004 33 32     98% 30   30.23        
Jan 16 08:15 WSW 3 2.5 Fog/Mist OVC004 33 32     98% 30   30.23        
Jan 16 07:55 WSW 5 4 Light Snow OVC004 33 32     97% 28   30.22        
Jan 16 07:35 WSW 6 2.5 Light Snow OVC004 33 32     98% 27   30.22        
Jan 16 07:16 WSW 5 2.5 Light Snow OVC004 33 32     98% 28   30.22        
Jan 16 07:15 WSW 5 2.5 Light Snow OVC004 33 32     98% 28   30.22        
Jan 16 06:55 WSW 5 2.5 Fog/Mist OVC004 33 32     99% 28   30.21        
Jan 16 06:36 SW 5 2.5 Fog/Mist OVC004 33 32     98% 28   30.2        
Jan 16 06:35 SW 5 2.5 Fog/Mist OVC004 33 32     99% 28   30.2        
Jan 16 06:16 WSW 6 1.75 Light Snow OVC004 33 32     99% 27   30.19        
Jan 16 06:15 WSW 6 1.5 Light Snow OVC004 33 32     99% 27   30.19        
Jan 16 05:55 WSW 7 1.75 Fog/Mist OVC004 33 32     98% 26   30.19        
Jan 16 05:36 WSW 7 2 Fog/Mist OVC004 33 32     98% 26   30.18        
Jan 16 05:35 WSW 7 2 Fog/Mist OVC004 33 32     98% 26   30.18        
Jan 16 05:16 WSW 7 2 Fog/Mist OVC006 33 32     98% 26   30.18        
Jan 16 05:15 WSW 8 2 Fog/Mist OVC006 33 32     98% 25   30.18        
Jan 16 04:55 SW 8 2.5 Fog/Mist OVC006 33 32     98% 25   30.18        
Jan 16 04:36 WSW 8 4 Fog/Mist OVC006 33 32     98% 25   30.17        
Jan 16 04:35 WSW 7 4 Fog/Mist OVC006 33 32     98% 26   30.17        
Jan 16 04:16 WSW 8 5 Fog/Mist OVC006 32 32     97% 25   30.17        
Jan 16 04:15 WSW 9 5 Fog/Mist OVC006 32 32     97% 25   30.18        
Jan 16 03:55 WSW 8 5 Fog/Mist OVC006 32 32     97% 25   30.18        
Jan 16 03:36 SW 6 5 Fog/Mist OVC008 32 31     97% 27   30.18        
Jan 16 03:35 SW 7 5 Fog/Mist OVC008 32 31     97% 26   30.18        
Jan 16 03:15 WSW 7 5 Fog/Mist OVC008 32 31     96% 26   30.18        
Jan 16 02:55 SW 8 5 Fog/Mist OVC008 32 31     96% 25   30.17        
Jan 16 02:36 SW 5 5 Fog/Mist OVC008 32 31     95% 27   30.17        
Jan 16 02:35 SW 6 5 Fog/Mist OVC008 32 31     95% 26   30.17        
Jan 16 02:15 SW 6 7 Cloudy OVC008 32 31     95% 26   30.16        
Jan 16 01:55 SW 7 7 Cloudy OVC008 32 30     93% 26   30.16        
Jan 16 01:36 SW 9 7 Cloudy OVC008 32 30     93% 24   30.16        
Jan 16 01:35 SW 9 7 Cloudy OVC008 32 30     93% 24   30.16        
Jan 16 01:15 SW 9 7 Cloudy OVC008 32 30     93% 24   30.15        
Jan 16 00:55 SW 9 7 Cloudy OVC008 32 30     93% 24   30.16        
Jan 16 00:36 SW 7 7 Cloudy OVC008 32 30     92% 25   30.16        
Jan 16 00:35 SW 8 7 Cloudy OVC008 32 30     92% 25   30.16        
Jan 16 00:15 SW 6 7 Cloudy OVC008 31 30     93% 26   30.17        
Jan 15 23:56 SSW 7 7 Cloudy OVC008 31 29     93% 24   30.18        
Jan 15 23:55 SSW 8 7 Cloudy OVC008 31 29     93% 24   30.18        
Jan 15 23:36 SSW 7 7 Cloudy OVC008 31 29     93% 24   30.18        
Jan 15 23:35 SSW 7 7 Cloudy OVC008 31 29     93% 24   30.18        
Jan 15 23:15 SW 8 7 Cloudy OVC010 31 29     91% 24   30.2        
Jan 15 22:55 SW 9 10 Cloudy OVC010 31 29     90% 24   30.2        
Jan 15 22:36 SW 11 10 Cloudy OVC010 31 29     90% 22   30.2        
Jan 15 22:15 WSW 11 10 Cloudy OVC010 31 28     88% 22   30.2        
Jan 15 21:56 WSW 11 10 Cloudy OVC010 31 28     88% 22   30.21        
Jan 15 21:36 WSW 13 10 Cloudy OVC010 31 28     90% 21   30.2        
Jan 15 21:15 SW 8 10 Cloudy OVC010 31 28     89% 24   30.19        
Jan 15 20:56 SW 8 10 Cloudy OVC010 31 28     89% 24   30.2        
Jan 15 20:36 SW 8 10 Cloudy OVC010 31 28     88% 24   30.2        
Jan 15 20:15 SSW 5 10 Cloudy OVC010 31 28     88% 26   30.2        
Jan 15 19:56 SW 6 10 Cloudy OVC010 31 28     88% 25   30.2        
Jan 15 19:36 SW 7 10 Cloudy OVC010 31 28     89% 24   30.2        
Jan 15 19:15 SW 6 10 Cloudy OVC010 31 27     88% 25   30.21        
Jan 15 18:56 SW 5 10 Cloudy OVC010 31 27     88% 26   30.21        
Jan 15 18:36 SW 6 10 Cloudy OVC010 31 27     88% 25   30.21        
Jan 15 18:35 SW 5 10 Cloudy OVC010 31 27     88% 26   30.21        
Jan 15 18:15 SW 9 10 Cloudy OVC010 31 27     88% 22   30.2        
Jan 15 17:56 SW 6 10 Cloudy OVC010 31 27     88% 25   30.21        
Jan 15 17:55 SW 7 10 Cloudy OVC010 31 27     88% 24   30.21        
Jan 15 17:35 SSW 6 10 Cloudy OVC012 30 27     88% 24   30.21        
Jan 15 17:15 SW 8 10 Cloudy OVC012 30 27     88% 23   30.22        
Jan 15 16:56 SW 8 10 Cloudy OVC012 30 27     88% 23   30.22        
Jan 15 16:35 SSW 7 10 Cloudy OVC012 30 27     86% 23   30.22        
Jan 15 16:15 SW 6 10 Cloudy OVC012 30 27     87% 24   30.22        
Jan 15 15:55 SW 7 10 Cloudy OVC012 30 26     86% 23   30.23        
Jan 15 15:36 SW 8 10 Cloudy OVC012 30 26     86% 22   30.24        
Jan 15 15:35 SW 8 10 Cloudy OVC012 30 26     86% 22   30.24        
Jan 15 15:16 SW 8 10 Cloudy OVC012 30 26     86% 22   30.24        
Jan 15 15:15 SW 8 10 Cloudy OVC012 30 26     86% 22   30.24        
Jan 15 14:56 SW 11 10 Cloudy OVC010 30 26     86% 20   30.24        
Jan 15 14:55 SW 11 10 Cloudy OVC010 30 26     86% 20   30.24        
Jan 15 14:35 WSW 8 7 Cloudy OVC010 29 26     88% 22   30.25        
Jan 15 14:16 WSW 8 5 Light Snow OVC010 29 26     88% 21   30.25        
Jan 15 14:15 WSW 7 5 Light Snow OVC010 29 26     88% 22   30.25        
Jan 15 13:55 WSW 6 7 Unknown Precipitation OVC010 29 26     88% 23   30.25        
Jan 15 13:36 SW 7 5 Fog/Mist OVC012 28 26     89% 21   30.26        
Jan 15 13:35 SW 6 5 Fog/Mist OVC012 28 26     89% 22   30.26        
Jan 15 13:15 SW 7 5 Fog/Mist OVC012 28 25     88% 21   30.27        
Jan 15 12:55 SW 6 5 Fog/Mist OVC010 28 25     89% 21   30.27        
Jan 15 12:36 WSW 6 5 Fog/Mist BKN010 BKN016 OVC022 27 24     89% 21   30.28        
Jan 15 12:35 WSW 6 5 Fog/Mist BKN010 BKN016 OVC022 27 24     88% 21   30.29        
Jan 15 12:15 SW 7 4 Fog/Mist SCT010 BKN016 OVC021 27 24     90% 19   30.3        
Jan 15 11:55 SW 5 4 Fog/Mist OVC016 26 24     91% 21   30.31        
Jan 15 11:36 WSW 6 7 Clear   26 24     92% 19   30.33        
Jan 15 11:35 WSW 7 7 Clear   26 24     92% 18   30.33        
Jan 15 11:15 SW 5 5 Clear   25 24     93% 20   30.33        
Jan 15 10:55 WSW 6 7 Clear   25 23     93% 18   30.33        
Jan 15 10:36 WSW 7 7 Cloudy OVC012 25 23     93% 17   30.33        
Jan 15 10:35 WSW 7 7 Cloudy OVC012 25 23     92% 17   30.33        
Jan 15 10:15 WSW 5 7 Cloudy OVC012 24 23     93% 19   30.32        
Jan 15 09:56 SW 5 7 Cloudy OVC012 24 22     93% 18   30.31        
Jan 15 09:55 SW 3 7 Cloudy OVC012 24 22     93% 20   30.31        
Jan 15 09:36 Calm 4 Fog/Mist OVC012 23 22     95%     30.3        
Jan 15 09:35 Calm 4 Fog/Mist OVC012 23 22     95%     30.3        
Jan 15 09:15 Calm 4 Fog/Mist OVC014 22 21     96%     30.29        
Jan 15 08:56 Calm 4 Fog/Mist OVC014 21 20     95%     30.29        
Jan 15 08:55 Calm 4 Fog/Mist OVC014 21 20     95%     30.29        
Jan 15 08:36 Calm 4 Fog/Mist OVC014 20 19     95%     30.29        
Jan 15 08:35 Calm 4 Fog/Mist OVC014 20 19     95%     30.29        
Jan 15 08:15 Calm 4 Fog/Mist OVC014 20 18     94%     30.3        
Jan 15 07:56 Calm 3 Fog/Mist SCT004 OVC014 20 19     95%     30.3        
Jan 15 07:55 Calm 3 Fog/Mist SCT004 OVC014 20 19     95%     30.3        
Jan 15 07:36 Calm 5 Fog/Mist OVC004 19 18     95%     30.31        
Jan 15 07:35 Calm 5 Fog/Mist OVC004 19 18     95%     30.31        
Jan 15 07:15 Calm 2 Light Snow OVC004 19 18     95%     30.31        
Jan 15 06:56 WNW 8 3 Fog/Mist OVC004 21 20     96% 11   30.31        
Jan 15 06:55 WNW 8 3 Fog/Mist OVC004 21 20     95% 11   30.31        
Jan 15 06:36 WNW 5 7 Cloudy OVC004 21 20     94% 15   30.3        
Jan 15 06:35 WNW 3 7 Cloudy OVC004 21 20     95% 17   30.3        
Jan 15 06:15 W 3 7 Cloudy BKN006 OVC014 18 16     93% 13   30.29        
Jan 15 05:56 Calm 7 Mostly Cloudy BKN014 17 15     93%     30.29        
Jan 15 05:55 Calm 7 Mostly Cloudy BKN014 17 15     93%     30.29        
Jan 15 05:36 Calm 7 Clear CLR 17 16     94%     30.28        
Jan 15 05:35 Calm 7 Clear CLR 17 16     94%     30.28        
Jan 15 05:15 Calm 7 Clear CLR 18 17     97%     30.28        
Jan 15 04:56 Calm 7 Clear CLR 19 18     94%     30.29        
Jan 15 04:55 Calm 7 Clear CLR 20 18     95%     30.29        
Jan 15 04:36 Calm 7 Partly Cloudy SCT022 19 18     95%     30.29        
Jan 15 04:35 SW 3 7 Partly Cloudy SCT022 19 18     95% 14   30.29        
Jan 15 04:15 WSW 3 7 Partly Cloudy SCT022 19 18     94% 14   30.29        
Jan 15 03:56 SW 3 7 Partly Cloudy SCT024 21 20     96% 16   30.29        
Jan 15 03:55 SW 3 7 Partly Cloudy SCT024 20 19     96% 15   30.29        
Jan 15 03:36 SW 3 10 Partly Cloudy SCT024 18 17     93% 13   30.29        
Jan 15 03:35 Calm 10 Partly Cloudy SCT024 18 16     93%     30.29        
Jan 15 03:15 Calm 7 Partly Cloudy SCT024 18 17     95%     30.29        
Jan 15 02:56 Calm 5 Fog/Mist SCT024 19 18     95%     30.3        
Jan 15 02:55 Calm 5 Fog/Mist SCT024 19 18     95%     30.3        
Jan 15 02:36 Calm 7 Partly Cloudy SCT024 20 19     95%     30.29        
Jan 15 02:35 Calm 7 Clear CLR 20 19     95%     30.29        
Jan 15 02:15 Calm 7 Clear CLR 20 19     95%     30.29        
Jan 15 01:56 Calm 7 Clear CLR 20 18     93%     30.29        
Jan 15 01:55 Calm 7 Clear CLR 20 18     93%     30.29        
Jan 15 01:36 Calm 7 Clear CLR 21 20     95%     30.29        
Jan 15 01:35 Calm 7 Clear CLR 21 20     96%     30.29        
Jan 15 01:15 Calm 7 Clear CLR 20 18     93%     30.29        
Jan 15 00:56 Calm 10 Clear CLR 22 20     93%     30.29        
Jan 15 00:55 Calm 10 Clear CLR 22 20     93%     30.29        
May 15 12:56 SW 9 10 Clear CLR 85 60     44%   85 29.97        
May 15 09:56 W 6 10 Clear CLR 78 60     53%   78          
May 15 09:37 WSW 6 10 Clear CLR 78 60     55%   78 29.94        
May 15 09:16 WSW 8 10 Clear CLR 77 60     56%   77 29.94        
May 15 07:16 WSW 6 10 Clear CLR 71 64     80%   72          
May 15 05:57 SW 6 10 Partly Cloudy SCT090 72 64     75%   73          
May 15 02:57 SW 6 10 Clear CLR 74 63     69%   74          
May 15 01:57 SSW 3 10 Clear CLR 74 63     67%   75 29.9        
May 15 01:16 SSW 3 10 Clear CLR 75 62     65%   75          
May 14 15:56 NE 5 10 Partly Cloudy SCT060 85 65     52%   87          
May 14 11:56 WNW 11 10 Clear CLR 85 64     50%   86          
May 14 09:37 WSW 7 10 Clear CLR 79 65     63%   79          
May 14 06:57 SW 5 10 Clear CLR 69 63     81%              
May 14 06:36 SW 5 10 Clear   69 63     81%     30        
May 13 17:17 SW 14 10 Mostly Cloudy SCT050 BKN070 BKN085 86 63     47%   87 29.98        
May 13 16:37 WSW 13 10 Partly Cloudy SCT050 SCT065 SCT085 87 63     46%   88 29.98        
May 13 11:37   10 Partly Cloudy SCT047 82 63     53%   83 30.04        
May 13 05:57 SW 5 10 Clear CLR 67 62     83%     30.03        
May 13 04:36 Calm 10 Clear CLR 66 62     88%              
May 13 00:57 SSW 5 10 Clear CLR 73 63     71%   73          
May 12 20:17 Calm 10 Clear CLR 80 61     54%   80          
May 12 19:56 S 5 10 Clear CLR 80 61     53%   81 30        
May 12 13:17   10 Partly Cloudy SCT047 83 61     48%   83 30.05        
May 12 09:17 WSW 13 10 Clear CLR 75 60     59%   75          
Notice The following observation data may not be complete
May 12 07:37   10 Clear CLR          %              
May 12 02:17 SW 3 10 Clear CLR 71 59     68%   70          
May 12 00:56 Calm 10 Clear CLR 73 59     60%   73 30.01        
May 11 21:56 Calm 5 Haze CLR 76 58     53%   76          
May 11 20:17 SSW 5 10 Clear CLR 80 56     45%   79          
May 11 19:56 SW 5 10 Clear CLR 81 56     43%   81 29.95        
May 11 17:56 SW 10 10 Clear CLR 85 55     37%   84 29.95        
May 11 17:37   10 Clear CLR 85 56     37%   83 29.94        
May 11 16:37 SW 15 10 Partly Cloudy SCT065 84 55     37%   83 29.97        
May 11 14:17   10 Partly Cloudy SCT055 84 55     38%   83 30        
May 11 12:37 WSW 10 10 Clear CLR 79 63     57%   80          
May 11 12:17 SSW 7 10 Clear CLR 78 62     58%   79 30.04        
May 11 08:17 Calm 10 Clear CLR 63 56     77%              
Notice The following observation data may not be complete
Jun 12 07:36   10 Clear CLR          %              
Jun 12 07:16 SW 3 10 Clear CLR 72 63     72%   73          
Jun 12 03:36 Calm 10 Mostly Cloudy BKN055 71 61     71%   71          
Jun 11 22:56 S 3 10 Clear CLR 76 60     58%   76          
Jun 11 22:16 S 3 10 Clear CLR 77 60     56%   77 30.08        
Jun 11 18:36 SSW 8 10 Partly Cloudy SCT065 85 57     39%   84 30.1        
Jun 11 09:36 SW 9 10 Partly Cloudy SCT055 77 61     58%   77          
Jun 11 07:16 SSW 3 10 Clear CLR 67 60     77%              
Jun 10 23:56 Calm 10 Clear CLR 71 59     64%   71          
Jun 10 21:36 SSW 5 10 Clear CLR 76 58     53%   76          
Jun 10 18:56 SSW 9 10 Clear CLR 83 55     38%   82 30.01        
Jun 10 09:55 SW 6 10 Clear CLR 73 57     57%   73          
Jun 10 03:16 SW 6 10 Clear CLR 65 54     68%              
Notice The following observation data may not be complete
Jun 09 21:36   10 Clear CLR          %              
Jun 09 19:56 SW 8 10 Clear CLR 78 50     36%   78 29.92        
Jun 09 17:16 SW 8 10 Clear   81 48     32%   80 29.92        
Notice The following observation data may not be complete
Jun 09 15:16   10 Clear CLR          %              
Jun 09 13:36 SW 9 10 Clear CLR 78 50     37%   78 29.97        
Notice The following observation data may not be complete
Jun 09 05:36   10 Clear CLR          %              
Notice The following observation data may not be complete
Jun 09 04:36   10 Clear CLR          %              
Jun 09 00:36 Calm 10 Clear CLR 57 53     84%     29.92        
Jun 08 23:15 Calm 10 Clear CLR 63 53     71%     29.92        
Jun 08 20:15 WNW 5 10 Clear CLR 72 49     43%   71 29.9        
Jun 08 08:35 NNE 7 10 Clear CLR 57 52     84%              
Jun 08 03:35 Calm 10 Clear CLR 51 49     93%              
Jun 08 00:16 Calm 10 Clear CLR 55 50     83%     30.04        
Jun 07 16:55 NNE 10 10 Cloudy SCT041 SCT049 OVC060 64 49     59%     30.03        
Jun 07 12:36 NE 7 10 Cloudy BKN047 OVC050 63 51     64%              
Jun 07 10:15 NE 9 10 Cloudy SCT023 BKN036 OVC046 64 52     64%              
Jun 07 09:36 ENE 8 10 Cloudy SCT020 BKN026 OVC034 63 53     70%              
Jun 06 10:35 NNE 8 10 Clear CLR 66 52     61%     29.96        
Jun 06 08:35 NE 5 10 Clear CLR 61 54     78%     29.95        
Jun 06 04:15 NE 5 10 Clear CLR 58 54     84%              
Jun 06 02:35 NE 3 10 Clear CLR 60 55     84%              
Jun 06 00:55 NE 8 10 Clear CLR 64 59     83%              
Jun 05 23:55 NE 5 10 Partly Cloudy SCT080 SCT095 SCT110 66 62     87%              
Jun 05 21:55 Calm 10 Mostly Cloudy SCT075 BKN090 68 64     88%              
Notice The following observation data may not be complete
Jun 05 21:35   10 Mostly Cloudy SCT065 BKN100 BKN120          %              
Jun 05 20:16 NE 3 10 Partly Cloudy SCT017 SCT026 SCT085 70 65     86%     29.77